Hourly Data Report for October 13, 2016

All times are specified in Local Standard Time (LST). Add 1 hour to adjust for Daylight Saving Time where and when it is observed.

OTTAWA INTL A
ONTARIO

45°19'00.000" N
75°40'00.000" W
114.90 m
6106001
71628
YOW

Download Data

Hourly Data (October 2016)
Hourly Data Report for October 13, 2016
Temp Definition
°C
Dew Point Temp Definition
°C
Rel Hum Definition
%
Wind Dir Definition
10's deg

Wind Spd Definition
km/h
Visibility Definition
km
Stn Press Definition
kPa
Hmdx Definition


Wind Chill Definition


Weather Definition


TIME
00:00 Legend Double Dagger 14.7 8.7 67 17 20 24.1 99.98     LegendNANA
01:00 Legend Double Dagger 13.9 8.6 70 18 16 24.1 99.94     Mostly Cloudy
02:00 Legend Double Dagger 13.6 8.3 70 18 17 24.1 99.85     LegendNANA
03:00 Legend Double Dagger 13.8 8.3 69 18 23 24.1 99.74     LegendNANA
04:00 Legend Double Dagger 13.5 8.2 70 18 19 24.1 99.70     Cloudy
05:00 Legend Double Dagger 13.5 8.4 71 18 23 24.1 99.66     LegendNANA
06:00 Legend Double Dagger 12.9 9.4 79 18 16 24.1 99.62     Rain
07:00 Legend Double Dagger 12.6 10.3 86 20 19 24.1 99.61     Cloudy
08:00 Legend Double Dagger 12.9 11.3 90 20 21 12.9 99.64     Rain
09:00 Legend Double Dagger 13.2 12.4 95 24 23 24.1 99.71     Rain
10:00 Legend Double Dagger 9.7 7.8 88 29 30 24.1 99.83     Mostly Cloudy
11:00 Legend Double Dagger 9.5 6.2 80 28 36 24.1 100.00     LegendNANA
12:00 Legend Double Dagger 9.8 6.0 77 29 29 24.1 100.13     LegendNANA
13:00 Legend Double Dagger 10.1 4.9 70 30 29 24.1 100.23     Mostly Cloudy
14:00 Legend Double Dagger 9.4 3.6 67 29 32 24.1 100.36     LegendNANA
15:00 Legend Double Dagger 9.3 2.7 63 31 32 24.1 100.50     LegendNANA
16:00 Legend Double Dagger 8.9 1.6 60 32 32 24.1 100.62     Mostly Cloudy
17:00 Legend Double Dagger 8.2 0.9 60 31 21 24.1 100.71     LegendNANA
18:00 Legend Double Dagger 6.4 1.5 71 32 13 24.1 100.77     LegendNANA
19:00 Legend Double Dagger 6.0 1.0 70 29 13 24.1 100.88     Clear
20:00 Legend Double Dagger 4.0 0.3 77 26 9 24.1 101.02     LegendNANA
21:00 Legend Double Dagger 4.5 0.5 75 31 14 24.1 101.08     LegendNANA
22:00 Legend Double Dagger 5.3 0.9 73 31 11 24.1 101.15     Mostly Cloudy
23:00 Legend Double Dagger 3.2 -0.3 78 30 12 24.1 101.18     LegendNANA

Notes on Data Quality.

Legend

  • E = Estimated
  • M = Missing
  • NA = Not Available
  • ‡ = Partner data that is not subject to review by the National Climate Archives
Date modified: